Other Public Products
Issued by NWS Grand Forks, ND

Home | Current Version | Previous Version | Text Only | Print | Product List | Glossary On
Versions: 1 2 3 4 5 6 7 8 9 10 11 12 13 14 15 16 17 18 19 20 21 22 23 24 25 26 27 28 29 30 31 32 33 34 35 36 37 38 39 40 41 42 43 44 45 46 47 48 49 50
000
FPUS83 KFGF 231131
OPUFGF
PRAIRIE TO PINES WEATHER ROUNDUP
NATIONAL WEATHER SERVICE EASTERN NORTH DAKOTA/GRAND FORKS ND
600 AM CDT SAT SEP 23 2017

 **SATELLITE DATA USED TO AUGMENT SKY COVER AT AUTOMATED STATIONS**
 *****  WEATHER ACROSS EASTERN NORTH DAKOTA  *****

CITY           SKY/WX    TMP DP  RH WIND       PRES   REMARKS
GRAND FORKS    CLOUDY    51  49  92 NW13      29.94F
GRAND FORKS AF CLOUDY    50  46  86 N12       29.95F
GRAND CITY NWS NOT AVBL
BUXTON           N/A     51  49  95 NW13        N/A
DEVILS LAKE    CLOUDY    47  43  86 NW13      30.03R
FARGO          CLOUDY    53  49  86 N15       29.93F
WAHPETON ARPT  CLOUDY    52  50  93 N8        29.92F
$$

 *****  WEATHER ACROSS CENTRAL AND WESTERN NORTH DAKOTA  *****

CITY           SKY/WX    TMP DP  RH WIND       PRES   REMARKS
JAMESTOWN      CLOUDY    50  47  89 N12       29.99R
BISMARCK       CLOUDY    49  47  93 N9        30.04F
MINOT          CLOUDY    47  45  93 NW9       30.06R
MINOT AFB      CLOUDY    46  44  91 NW13      30.04F
GARRISON         N/A     45  44  97 NE6       30.06R
WILLISTON      CLOUDY    45  41  86 NE3       30.11R
DICKINSON      NOT AVBL
HETTINGER      CLOUDY    44  40  85 N8        30.08R
$$

 *****  OTHER OBSERVATIONS NORTHEAST NORTH DAKOTA  *****

CITY           SKY/WX    TMP DP  RH WIND       PRES   REMARKS
WALHALLA       FAIR     N/A N/A N/A NW13G20   29.97R
LANGDON        CLOUDY    46  46 100 N13       29.99S
CAVALIER       CLOUDY    50  46  87 NW14      29.97R
GRAFTON        CLOUDY    50  48  93 NW13G21   29.98R
CANDO          CLOUDY    46  46 100 N9        30.05R
FORT TOTTEN      N/A     48  44  86 N5        29.95S
ROLLA          CLOUDY    45  45 100 N12G17    30.01F
RUGBY          PTSUNNY   45  45 100 CALM      30.05R
 ***** THE ABOVE OBSERVATIONS ARE NON NWS ARE NOT QUALITY
        CONTROLLED AND MAY MIS-REPORT RAIN FOR SNOW...
$$

 *****  OTHER OBSERVATIONS SOUTHEAST NORTH DAKOTA *****

CITY           SKY/WX    TMP DP  RH WIND       PRES   REMARKS
COOPERSTOWN    CLOUDY    48  46  93 NW13      30.00R
VALLEY CITY    CLOUDY    50  50 100 N13       29.98F
OAKES          NOT AVBL
GWINNER        PTSUNNY   52  52 100 N10       29.95R
SHEYENNE NWR     N/A     53  52  95 N5        29.95S
BUFFALO          N/A     51  47  86 W6          N/A
WYNDMERE       NOT AVBL
 ***** THE ABOVE OBSERVATIONS ARE NON NWS ARE NOT QUALITY
       CONTROLLED AND MAY MIS-REPORT RAIN FOR SNOW...
$$

  *****  WEATHER ACROSS NORTHERN MINNESOTA  *****

CITY           SKY/WX    TMP DP  RH WIND       PRES   REMARKS
FLAG ISLAND    LGT RAIN  54  54 100 NW14      29.85R
WARROAD        CLOUDY    54  48  82 W10       29.90R
ROSEAU         CLOUDY    54  48  82 NW9       29.90R
HALLOCK          N/A     50  48  93 N14G22    29.93R
THF RVR FALLS  CLOUDY    50  49  96 NW15      29.92R
HALSTAD          N/A     51  48  90 N5          N/A
FOSSTON        CLOUDY    50  48  93 NW7       29.92R FOG
BAUDETTE       CLOUDY    55  55 100 NW12      29.85R
WASKISH        CLOUDY    57  57 100 W8        29.86F FOG
CROOKSTON      CLOUDY    50  48  93 N14       29.94R
$$
  *****  WEATHER ACROSS CENTRAL AND WEST MINNESOTA  *****

CITY           SKY/WX    TMP DP  RH WIND       PRES   REMARKS
BEMIDJI        CLOUDY    55  54  97 W10       29.89R FOG
PARK RAPIDS    CLOUDY    57  55  93 W10       29.89R
WADENA         LGT RAIN  57  57 100 W14       29.95R
DETROIT LAKES  LGT RAIN  52  52 100 NW13G18   29.97R
MOORHEAD       LGT RAIN  52  48  87 N10       29.98R
FERGUS FALLS   CLOUDY    54  54 100 NW7       29.95F
ELBOW LAKE     CLOUDY    54  54  98 W15       29.96R
MORRIS MN      CLOUDY    55  55 100 NW12      29.96R
STAPLES        TSTM      61  61 100 NW6       29.91R
WHEATON        RAIN      54  52  94 NW13      29.94F
$$
  *****  WEATHER ELSEWHERE ACROSS MINNESOTA  *****

CITY           SKY/WX    TMP DP  RH WIND       PRES   REMARKS
DULUTH         MOCLDY    70  67  90 W7        29.90S
INTRNTL FALLS  LGT RAIN  64  63  96 W12       29.83R FOG
ELY            LGT RAIN  70  64  83 W13G23    29.88F
CLOQUET        FAIR      70  64  83 CALM      29.89S
BRAINERD       FAIR      66  65  96 CALM      29.87S FOG
HIBBING        LGT RAIN  66  65  96 SE5       29.85F
ALEXANDRIA     CLOUDY    59  58  96 NW7       29.96R
SAINT CLOUD    FAIR      70  69  97 SE6       29.86F
MINNEAPOLIS    MOCLDY    78  69  73 S10       29.91R
$$

  *****  WEATHER ACROSS SOUTH DAKOTA  *****

CITY           SKY/WX    TMP DP  RH WIND       PRES   REMARKS
SIOUX FALLS    CLOUDY    60  59  96 N8        29.93R
BROOKINGS      CLOUDY    57  55  93 N12       29.95S
WATERTOWN      CLOUDY    55  55 100 N9        29.92F
HURON          CLOUDY    54  53  97 NW6       29.97R
SISSETON         N/A     55  54  96 NW14      29.94F
ABERDEEN       CLOUDY    51  51 100 N9        29.94F
MITCHELL       CLOUDY    55  53  93 N9        29.94F
PIERRE         CLOUDY    50  46  86 N8        30.00R
MOBRIDGE       CLOUDY    51  46  83 N9        29.98F
RAPID CITY     NOT AVBL
$$

  *****  SOME WEATHER IN NEARBY STATES *****

CITY           SKY/WX    TMP DP  RH WIND       PRES   REMARKS
GLASGOW MT     CLOUDY    44  42  93 E3        30.09S
GREAT FALLS MT CLOUDY    35  34  96 S6        30.06F
CHEYENNE WY    CLOUDY    41  36  82 N7        30.01R
SCOTTSBLUFF NE FAIR      46  38  73 NW8       30.00R
OMAHA NE       FAIR      73  67  81 S10       29.93R
DES MOINES IA  FAIR      72  67  84 S5        29.97R
DAVENPORT IA   FAIR      65  62  90 S5        30.04S
CHICAGO IL     FAIR      74  65  73 CALM      30.06R
EAU CLAIRE WI  FAIR      71  65  81 S3        29.97R
LA CROSSE WI   FAIR      73  67  81 SE3       29.99R
$$

  *****  SOME NATIONAL WEATHER *****

CITY           SKY/WX    TMP DP  RH WIND       PRES   REMARKS
LA GUARDIA NY  FAIR      70  56  61 N7        29.99R
RALEIGH NC     FAIR      62  62 100 CALM      30.05R
ATLANTA GA     FAIR      71  66  84 E6        30.05R
NEW ORLEANS LA FAIR      74  74 100 CALM      29.93
OKLAHOMA CITY  FAIR      68  65  90 S8        29.95R
ALBUQUERQUE NM CLOUDY    65  48  54 E9        29.89F
SALT LAKE CITY FAIR      43  39  86 N5        29.95S
LOS ANGELES CA FAIR      59  55  87 E3        29.82R
BOISE ID       FAIR      38  35  89 SE7       30.02R
SEATTLE WA     CLOUDY    55  51  86 SE5       30.05S
$$

*** WEATHER ACROSS MANITOBA...SASKATCHEWAN AND ONTARIO ***
                ***ONTARIO***

CITY           SKY/WX    TMP DP  RH WIND       PRES   REMARKS
GERALDTON      CLOUDY    63  63 100 SE9       29.85S FOG
THUNDER BAY    MOCLDY    63  63 100 SW6       29.85R
SIOUX LOOKOUT  CLOUDY    64  63  94 SW3       29.77R
TORONTO        PTCLDY    64  54  68 CALM      30.10R
BIG TROUT LK   LGT RAIN  46  46 100 NE9       29.95R
PICKLE LAKE    LGT RAIN  55  55 100 E10       29.74  VSB 1
DRYDEN         FOG       63  63 100 W7        29.79R VSB 1/2
KENORA         DRIZZLE   54  54 100 NW8       29.84  FOG
$$
                *** MANITOBA***

CITY           SKY/WX    TMP DP  RH WIND       PRES   REMARKS
BRANDON        CLOUDY    46  43  87 W5        30.05R
DAUPHIN        CLOUDY    45  45 100 W7        30.06R
ISLAND LAKE    CLOUDY    46  45  93 N10       30.01R
PILOT MOUND      N/A     45  43  93 N13G20      N/A
THE PAS        DRIZZLE   45  43  93 S2        30.08S
THOMPSON       DRIZZLE   39  37  93 NE7       30.13R
WINNIPEG       CLOUDY    50  46  87 W13       29.99R
LYNN LAKE      LGT RAIN  37  37 100 NE7       30.15R
CHURCHILL      CLOUDY    41  36  81 NE13      30.18S
GILLAM         CLOUDY    39  37  93 N15G21    30.11S
$$
                ***SASKATCHEWAN***

CITY           SKY/WX    TMP DP  RH WIND       PRES   REMARKS
ESTEVAN        MOCLDY    43  43 100 N5        30.09R
KINDERSLEY     MOCLDY    37  36  93 CALM      30.07S
LLOYDMINSTER   CLOUDY    39  37  93 S3        30.08R
PRINCE ALBERT  CLOUDY    41  39  93 CALM      30.10S
REGINA         CLOUDY    41  39  93 W2        30.09R
YORKTON        CLOUDY    41  41 100 S2        30.09R



USA.gov is the U.S. government's official web portal to all federal, state and local government web resources and services.